This is the latest recevied weather packets stored in our database for station/object VE6HFD-WX. If no packets are shown the sender has not sent any weather packets the latest 10 day(s).
| Time | Temp. | Humidity | Pressure | Rain* | Wind** | Luminosity | Snow |
|---|---|---|---|---|---|---|---|
| 1788450521 | 10° C | 94% | 997.7 hPa | 0 mm | - | - | - |
| 1788450191 | 10° C | 94% | 997.6 hPa | 0 mm | - | - | - |
| 1788449891 | 10° C | 94% | 997.5 hPa | 0 mm | - | - | - |
| 1788449561 | 10° C | 94% | 997.6 hPa | 0 mm | - | - | - |
| 1788449231 | 9.44° C | 94% | 997.4 hPa | 0 mm | - | - | - |
| 1788448931 | 9.44° C | 94% | 997.2 hPa | 0 mm | - | - | - |
| 1788448631 | 9.44° C | 94% | 996.8 hPa | 0 mm | - | - | - |
| 1788448331 | 9.44° C | 94% | 996.6 hPa | 0 mm | - | - | - |
| 1788448001 | 9.44° C | 94% | 996.5 hPa | 0 mm | - | - | - |
| 1788447671 | 9.44° C | 94% | 996.3 hPa | 0 mm | - | - | - |
| 1788447371 | 9.44° C | 94% | 996.3 hPa | 0 mm | - | - | - |
| 1788447041 | 9.44° C | 94% | 996.3 hPa | 0 mm | - | - | - |
| 1788446741 | 8.89° C | 94% | 996 hPa | 0 mm | - | - | - |
| 1788446411 | 8.89° C | 94% | 995.9 hPa | 0 mm | - | - | - |
| 1788446111 | 8.33° C | 94% | 996.2 hPa | 0 mm | - | - | - |
| 1788445781 | 8.33° C | 94% | 996.2 hPa | 0 mm | - | - | - |
| 1788445481 | 8.33° C | 94% | 996.4 hPa | 0 mm | - | - | - |
| 1788445151 | 7.78° C | 94% | 996.2 hPa | 0 mm | - | - | - |
| 1788444821 | 7.78° C | 94% | 996.3 hPa | 0 mm | - | - | - |
| 1788444521 | 7.22° C | 94% | 996.4 hPa | 0 mm | - | - | - |
| 1788444221 | 6.67° C | 94% | 996.3 hPa | 0 mm | - | - | - |
| 1788443891 | 6.67° C | 94% | 996.3 hPa | 0 mm | - | - | - |
| 1788443591 | 6.11° C | 94% | 996.5 hPa | 0 mm | - | - | - |
| 1788443261 | 6.11° C | 94% | 996.4 hPa | 0 mm | - | - | - |
| 1788442961 | 5.56° C | 93% | 996.5 hPa | 0 mm | - | - | - |
* Rain latest hour (hover to see other rain measurements)
** Current wind speed in m/s (hover to see current wind gust speed)